Regional Weather Roundup
Issued by NWS Midland/Odessa, TX

Skip options and go directly to product.
Home | Oldest Version | Previous Version | Current Version | All | Graphics & Text | Save Text | Print | Product List | Glossary On

Skip product version selection by date and time.   
424
ASUS44 KMAF 270710
RWRMAF
MIDLAND AREA WEATHER ROUNDUP
NATIONAL WEATHER SERVICE MIDLAND TX
100 AM CST FRI FEB 27 2015

...IN SOUTHWEST TEXAS AND SOUTHEAST NEW MEXICO...

CITY           SKY/WX    TMP DP  RH WIND       PRES   REMARKS
ALPINE         CLOUDY    25  24  96 NE9       30.17F WCI  16
ANDREWS        CLOUDY    25  11  55 MISG      30.24F
ARTESIA        MIX PCPN  25  23  93 SE14      30.21S WCI  13
BIG SPRING     CLOUDY    27   9  46 NE12G20   30.30S WCI  17
CARLSBAD       CLOUDY    28  18  66 SE12      30.20F WCI  18
DRYDEN           N/A     33  22  63 NE14      30.22F WCI  23
FORT STOCKTON  CLOUDY    26  20  77 E10       30.21F WCI  16
GUAD PASS      FRZ RAIN  20  19  96 NE32      30.00S VSB 1/2 WCI   1
HOBBS          LGT RAIN  23  14  68 E15       30.20F WCI  10
MARFA          CLOUDY    25  23  93 NE16      30.08F WCI  12
MIDLAND AIRPK  CLOUDY    28  13  54 E14       30.27R WCI  17
MIDLAND INTL   CLOUDY    27  13  55 E15       30.25S WCI  15
ODESSA         CLOUDY    26  13  57 E15       30.24F WCI  14
PECOS          CLOUDY    29  19  65 E16       30.24F WCI  17
PRESIDIO       FAIR      38  27  63 NE17G24   30.09S WCI  29
SEMINOLE       CLOUDY    25   9  51 E13       30.24F WCI  13
SNYDER         CLOUDY    24   7  47 NE17G24   30.30F WCI  11
WINK           CLOUDY    29  15  56 E12       30.22F WCI  19
$$
...OTHER STATIONS IN TEXAS...

CITY           SKY/WX    TMP DP  RH WIND       PRES   REMARKS
ABILENE        CLOUDY    25  12  58 NE9       30.34F WCI  15
AMARILLO       CLOUDY    19   5  54 E14       30.28F WCI   6
AUSTIN         CLOUDY    36  21  54 N20       30.35F WCI  25
BROWNSVILLE    PTCLDY    54  48  80 NE7       30.20S
CORPUS CHRISTI PTCLDY    44  36  73 NE22G31   30.26F WCI  35
DALLAS FTW     CLOUDY    30  10  43 NE18      30.42R WCI  18
DEL RIO        CLOUDY    40  25  55 NE8       30.28F WCI  34
EL PASO        MOCLDY    33  23  66 NE12      30.02F WCI  24
HOUSTON INT    CLOUDY    39  32  76 N13       30.34S WCI  31
LUBBOCK        CLOUDY    21   9  59 E14G24    30.26F WCI   8
SAN ANGELO     CLOUDY    29  17  61 E14       30.30F WCI  18
SAN ANTONIO    CLOUDY    38  23  55 NE12G20   30.30F WCI  30
WACO           CLOUDY    33  19  56 NE13      30.41R WCI  24
WICHITA FALLS  NOT AVBL
$$
...OTHER LOCATIONS IN NEW MEXICO...

CITY           SKY/WX    TMP DP  RH WIND       PRES   REMARKS
ALAMAGORDO     LGT SNOW  32  32 100 MISG      30.01F
ALBUQUERQUE    SNOW      23  20  88 E23       29.96S VSB 1/2 WCI   7
CANNON AFB     LGT SNOW  18  15  88 SE13      30.20R VSB 1   WCI   5
CLOVIS         CLOUDY    18  12  79 SE14      30.22R WCI   4
HOLLOMAN AFB   LGT SNOW  34  30  86 W5        30.00S WCI  30
ROSWELL        LGT SNOW  24  21  88 SE9       30.19S VSB 1   WCI  14
RUIDOSO        LGT SNOW  18  16  93 MISG      30.01F
SANTA FE       LGT SNOW  18  12  77 SE22G31   29.96S WCI   1
TRUTH OR CONSE MOCLDY    34  34 100 CALM      29.92F
TUCUMCARI      LGT SNOW  21  18  88 SE18      30.20R VSB 3/4 WCI   6
$$

USA.gov is the U.S. government's official web portal to all federal, state and local government web resources and services.